When you browse on this site, cookies collect data to enhance your experience and personalize the content and advertising you see.
Visit our Privacy Policy to learn more. By continuing to use the site, you agree to this use of cookies and data.
  • In Portugal
  • List of Countries
  • For 7 days
  • Water Temperature
  • Satellite Maps
  • Weather Map
  • Weather Widgets
  • user-avatar
    Login

    Hourly Weather Tottori

    Today, 19 November, Monday

    Time Temperature Precipitation Wind Pressure Humidity
    00:00 +10°C° 0.1 mm 2 mps 731 mmHg 88%
    01:00 +10°C° 0.6 mm 2 mps 731 mmHg 89%
    02:00 +10°C° 0.6 mm 3 mps 731 mmHg 90%
    03:00 +10°C° 0 mm 3 mps 731 mmHg 91%
    04:00 +9°C° 0.7 mm 3 mps 731 mmHg 91%
    05:00 +9°C° 0.7 mm 3 mps 731 mmHg 92%
    06:00 +9°C° 0.7 mm 3 mps 731 mmHg 92%
    07:00 +9°C° 0.2 mm 3 mps 731 mmHg 90%
    08:00 +10°C° 0.2 mm 3 mps 731 mmHg 88%
    09:00 +10°C° 0 mm 2 mps 732 mmHg 86%
    10:00 +10°C° 0 mm 2 mps 732 mmHg 81%
    11:00 +12°C° 0 mm 2 mps 732 mmHg 77%
    12:00 +11°C° 0 mm 3 mps 731 mmHg 73%
    13:00 +12°C° 0 mm 3 mps 731 mmHg 70%
    14:00 +12°C° 0 mm 3 mps 731 mmHg 68%
    15:00 +12°C° 0 mm 3 mps 731 mmHg 67%
    16:00 +11°C° 0.1 mm 3 mps 731 mmHg 72%
    17:00 +9°C° 0.1 mm 3 mps 732 mmHg 77%
    18:00 +8°C° 0.1 mm 2 mps 732 mmHg 81%
    19:00 +8°C° 0.1 mm 2 mps 732 mmHg 83%
    20:00 +8°C° 0.1 mm 2 mps 732 mmHg 85%
    21:00 +7°C° 0.1 mm 2 mps 732 mmHg 87%
    22:00 +7°C° 0.2 mm 2 mps 732 mmHg 87%
    23:00 +7°C° 0.2 mm 2 mps 733 mmHg 87%

    Tomorrow, 20 November, Tuesday

    Time Temperature Precipitation Wind Pressure Humidity
    00:00 +7°C° 0.2 mm 2 mps 733 mmHg 87%
    01:00 +7°C° 0.2 mm 2 mps 733 mmHg 87%
    02:00 +7°C° 0.2 mm 2 mps 733 mmHg 87%
    03:00 +7°C° 0.2 mm 2 mps 733 mmHg 88%
    04:00 +7°C° 0.1 mm 2 mps 733 mmHg 88%
    05:00 +6°C° 0.1 mm 2 mps 733 mmHg 88%
    06:00 +6°C° 0.1 mm 2 mps 734 mmHg 89%
    07:00 +7°C° 0.1 mm 2 mps 734 mmHg 83%
    08:00 +8°C° 0.1 mm 2 mps 734 mmHg 77%
    09:00 +9°C° 0.1 mm 2 mps 734 mmHg 72%
    10:00 +10°C° 0 mm 2 mps 734 mmHg 65%
    11:00 +11°C° 0 mm 3 mps 734 mmHg 59%
    12:00 +12°C° 0 mm 3 mps 734 mmHg 53%
    13:00 +12°C° 0 mm 3 mps 735 mmHg 52%
    14:00 +12°C° 0 mm 3 mps 735 mmHg 51%
    15:00 +12°C° 0 mm 3 mps 735 mmHg 50%
    16:00 +11°C° 0 mm 3 mps 735 mmHg 56%
    17:00 +9°C° 0 mm 2 mps 735 mmHg 63%
    18:00 +8°C° 0 mm 2 mps 735 mmHg 69%
    19:00 +7°C° 0 mm 2 mps 736 mmHg 72%
    20:00 +7°C° 0 mm 2 mps 736 mmHg 74%
    21:00 +6°C° 0 mm 2 mps 736 mmHg 77%
    22:00 +6°C° 0 mm 2 mps 736 mmHg 77%
    23:00 +6°C° 0 mm 2 mps 736 mmHg 78%

    Day after tomorrow, 21 November, Wednesday

    Time Temperature Precipitation Wind Pressure Humidity
    00:00 +5°C° 0 mm 2 mps 736 mmHg 79%
    01:00 +5°C° 0 mm 2 mps 736 mmHg 79%
    02:00 +5°C° 0 mm 2 mps 736 mmHg 79%
    03:00 +5°C° 0 mm 2 mps 736 mmHg 79%
    04:00 +5°C° 0 mm 2 mps 736 mmHg 79%
    05:00 +5°C° 0 mm 2 mps 736 mmHg 79%
    06:00 +4°C° 0 mm 2 mps 736 mmHg 79%
    07:00 +6°C° 0 mm 2 mps 736 mmHg 72%
    08:00 +8°C° 0 mm 2 mps 736 mmHg 66%
    09:00 +11°C° 0 mm 1 mps 737 mmHg 60%
    10:00 +12°C° 0 mm 1 mps 736 mmHg 55%
    11:00 +14°C° 0 mm 1 mps 736 mmHg 49%
    12:00 +15°C° 0 mm 1 mps 736 mmHg 44%
    13:00 +15°C° 0 mm 1 mps 735 mmHg 45%
    14:00 +15°C° 0 mm 1 mps 735 mmHg 45%
    15:00 +14°C° 0 mm 2 mps 734 mmHg 45%
    16:00 +13°C° 0 mm 1 mps 734 mmHg 51%
    17:00 +11°C° 0 mm 1 mps 734 mmHg 57%
    18:00 +9°C° 0 mm 1 mps 734 mmHg 62%
    19:00 +9°C° 0 mm 1 mps 734 mmHg 64%
    20:00 +9°C° 0 mm 1 mps 734 mmHg 65%
    21:00 +9°C° 0 mm 1 mps 734 mmHg 66%
    22:00 +9°C° 0 mm 1 mps 734 mmHg 67%
    23:00 +9°C° 0 mm 1 mps 734 mmHg 68%

    22 November, Thursday

    Time Temperature Precipitation Wind Pressure Humidity
    00:00 +9°C° 0 mm 1 mps 733 mmHg 69%
    01:00 +9°C° 0 mm 1 mps 733 mmHg 70%
    02:00 +9°C° 0 mm 1 mps 733 mmHg 71%
    03:00 +9°C° 0 mm 1 mps 733 mmHg 72%
    04:00 +9°C° 0.1 mm 1 mps 733 mmHg 75%
    05:00 +9°C° 0.1 mm 1 mps 733 mmHg 78%
    06:00 +9°C° 0.1 mm 1 mps 732 mmHg 80%
    07:00 +9°C° 0.1 mm 1 mps 733 mmHg 78%
    08:00 +10°C° 0.1 mm 1 mps 733 mmHg 77%
    09:00 +11°C° 0.1 mm 1 mps 733 mmHg 75%
    10:00 +12°C° 0.2 mm 2 mps 733 mmHg 70%
    11:00 +12°C° 0.2 mm 3 mps 733 mmHg 64%
    12:00 +13°C° 0.2 mm 4 mps 733 mmHg 59%
    13:00 +12°C° 0.3 mm 4 mps 733 mmHg 64%
    14:00 +11°C° 0.3 mm 4 mps 732 mmHg 69%
    15:00 +9°C° 0.3 mm 5 mps 732 mmHg 74%
    16:00 +8°C° 0.2 mm 5 mps 733 mmHg 76%
    17:00 +7°C° 0.2 mm 4 mps 733 mmHg 79%
    18:00 +6°C° 0.2 mm 4 mps 733 mmHg 81%
    19:00 +5°C° 0 mm 4 mps 734 mmHg 81%
    20:00 +5°C° 0 mm 4 mps 734 mmHg 80%
    21:00 +4°C° 0 mm 3 mps 734 mmHg 80%
    22:00 +4°C° 0 mm 3 mps 734 mmHg 80%
    23:00 +3°C° 0 mm 3 mps 734 mmHg 80%

    23 November, Friday

    Time Temperature Precipitation Wind Pressure Humidity
    00:00 +3°C° 0 mm 3 mps 734 mmHg 80%
    01:00 +3°C° 0 mm 3 mps 734 mmHg 81%
    02:00 +3°C° 0 mm 2 mps 734 mmHg 81%
    03:00 +3°C° 0 mm 2 mps 734 mmHg 82%
    04:00 +2°C° 0 mm 3 mps 734 mmHg 82%
    05:00 +2°C° 0 mm 3 mps 734 mmHg 82%
    06:00 +2°C° 0 mm 3 mps 734 mmHg 81%
    07:00 +3°C° 0.1 mm 3 mps 734 mmHg 77%
    08:00 +5°C° 0.1 mm 4 mps 734 mmHg 73%
    09:00 +6°C° 0.1 mm 4 mps 735 mmHg 68%
    10:00 +7°C° 0.1 mm 4 mps 735 mmHg 65%
    11:00 +8°C° 0.1 mm 4 mps 734 mmHg 62%
    12:00 +10°C° 0.1 mm 4 mps 734 mmHg 58%
    13:00 +8°C° 0 mm 4 mps 734 mmHg 60%
    14:00 +9°C° 0 mm 3 mps 734 mmHg 61%
    15:00 +9°C° 0 mm 3 mps 733 mmHg 62%
    16:00 +8°C° 0.1 mm 3 mps 734 mmHg 66%
    17:00 +7°C° 0.1 mm 2 mps 734 mmHg 71%
    18:00 +6°C° 0.1 mm 2 mps 734 mmHg 75%
    19:00 +7°C° 0.1 mm 1 mps 734 mmHg 77%
    20:00 +7°C° 0.1 mm 1 mps 734 mmHg 78%
    21:00 +6°C° 0.1 mm 1 mps 734 mmHg 79%
    22:00 +6°C° 0.2 mm 1 mps 734 mmHg 80%
    23:00 +6°C° 0.2 mm 1 mps 734 mmHg 80%

    24 November, Saturday

    Time Temperature Precipitation Wind Pressure Humidity
    00:00 +6°C° 0.2 mm 1 mps 734 mmHg 81%
    01:00 +6°C° 0.4 mm 1 mps 734 mmHg 82%
    02:00 +6°C° 0.4 mm 1 mps 733 mmHg 82%
    03:00 +6°C° 0.4 mm 1 mps 733 mmHg 83%
    04:00 +4°C° 0.5 mm 2 mps 733 mmHg 84%
    05:00 +4°C° 0.5 mm 2 mps 733 mmHg 86%
    06:00 +4°C° 0.5 mm 2 mps 733 mmHg 87%
    07:00 +4°C° 0.9 mm 3 mps 733 mmHg 84%
    08:00 +5°C° 0.9 mm 3 mps 733 mmHg 80%
    09:00 +6°C° 0.9 mm 4 mps 733 mmHg 77%
    10:00 +6°C° 1.4 mm 4 mps 733 mmHg 77%
    11:00 +6°C° 1.4 mm 4 mps 733 mmHg 77%
    12:00 +7°C° 1.4 mm 4 mps 733 mmHg 78%
    13:00 +6°C° 1.1 mm 4 mps 733 mmHg 80%
    14:00 +6°C° 1.1 mm 4 mps 733 mmHg 82%
    15:00 +5°C° 1.1 mm 4 mps 733 mmHg 85%
    16:00 +5°C° 0.2 mm 3 mps 733 mmHg 86%
    17:00 +4°C° 0.2 mm 3 mps 733 mmHg 87%
    18:00 +4°C° 0.2 mm 3 mps 734 mmHg 87%
    19:00 +5°C° 0 mm 2 mps 734 mmHg 88%
    20:00 +4°C° 0 mm 2 mps 734 mmHg 89%
    21:00 +5°C° 0 mm 1 mps 734 mmHg 89%
    22:00 +4°C° 0 mm 1 mps 734 mmHg 89%
    23:00 +4°C° 0 mm 1 mps 734 mmHg 89%
    Show more